Location: Lewisville
(33.0462°N, 96.9942°W)
Time: 08:44:05
(UTC-05:00)

Envisat - Pass Details

Date: 24 September 2021
Orbit: 764 x 766 km, 98.2° (Epoch: 22 October)

Event Time Altitude Azimuth Distance (km) Brightness Sun altitude
Rises 06:18:01 0° 16° (NNE) 3,234 6.6 -13.3°
Reaches altitude 10° 06:20:22 10° 20° (NNE) 2,304 5.8 -12.8°
Maximum altitude 06:25:23 62° 101° (E) 861 3.6 -11.8°
Drops below altitude 10° 06:30:23 10° 181° (S) 2,290 5.4 -10.7°
Sets 06:32:42 0° 185° (S) 3,212 6.1 -10.2°
